Header for Extended Forecast Station List Page

Search by: ID | Name | Date | Parm | Value | Avg | % Avg
Sort by: ID | Name | Date | Parm | Value | Avg | % Avg

Enter search or view all records.

Click on id for station plot
#IDNameDateParmValueAvg% Avg
0MYKO3MCKAY CREEK-NEAR PILOT ROCK05-10-2021DISCHARGE (KAF)4594
1WRMO3MALHEUR-WARM SPRINGS DAM05-10-2021INFLOW (KAF)51049
2LWRI1LITTLE WOOD-LITTLE WOOD DAM05-10-2021INFLOW (KAF)65510
3RIDI1WILLOW CREEK-RIRIE DAM05-10-2021INFLOW (KAF)82236
4BERO3MALHEUR-AGENCY VALLEY DAM05-10-2021INFLOW (KAF)121961
5PIHI1PORTNEUF-AT POCATELLO05-10-2021DISCHARGE (KAF)144532
6MACI1BIG LOST-MACKAY RESERVOIR NEAR MACKAY05-10-2021INFLOW (KAF)1715511
7HWRI1BIG LOST-AT HOWELL RANCH NEAR CHILLY05-10-2021DISCHARGE (KAF)1815511
8HOTI1BRUNEAU-NEAR HOT SPRINGS05-10-2021DISCHARGE (KAF)2012516
9MAGI1BIG WOOD-MAGIC DAM05-10-2021INFLOW (KAF)2515816
10TCHW1WALLA WALLA-NEAR TOUCHET05-10-2021DISCHARGE (KAF)284267
11UMAO3UMATILLA-NEAR UMATILLA05-10-2021DISCHARGE (KAF)2817166
12SATI1ST MARIES-NEAR SANTA05-10-2021DISCHARGE (KAF)356752
13GIBO3UMATILLA-NEAR GIBBON05-10-2021DISCHARGE (KAF)3733111
14OWYO3OWYHEE-OWYHEE DAM05-10-2021INFLOW (KAF)4213132
15DLGM8CLARK FORK-AT DEER LODGE05-10-2021DISCHARGE (KAF)466471
16DEDI1DEADWOOD-NEAR LOWMAN05-10-2021INFLOW (KAF)5411348
17PDTO3UMATILLA-AT PENDLETON05-10-2021DISCHARGE (KAF)6152117
18HALI1BIG WOOD-AT HAILEY05-10-2021DISCHARGE (KAF)6720633
19TNAW1TEANAWAY-BELOW FORKS05-10-2021DISCHARGE (KAF)7059118
20KADW1KACHESS-KACHESS DAM05-10-2021INFLOW (KAF)7571105
21BUDW1BUMPING-BUMPING LAKE DAM05-10-2021INFLOW (KAF)879493
22KEDW1YAKIMA-KEECHELUS LAKE05-10-2021INFLOW (KAF)8879112
23EASW1YAKIMA-AT EASTON05-10-2021DISCHARGE (KAF)10089112
24WSRI1WEISER-NEAR WEISER05-10-2021DISCHARGE (KAF)12321457
25HODO3HOOD-NEAR TUCKER BRIDGE05-10-2021DISCHARGE (KAF)12314983
26IPDI1HENRYS FORK-ISLAND PARK DAM05-10-2021INFLOW (KAF)12420162
27STRM8ST. REGIS-NEAR ST. REGIS05-10-2021DISCHARGE (KAF)12517372
28ARAI1SF BOISE-ANDERSON RANCH DAM05-10-2021INFLOW (KAF)12837834
29MONO3NF JOHN DAY-AT MONUMENT05-10-2021DISCHARGE (KAF)13428847
30MILI1SNAKE-AT MILNER05-10-2021DISCHARGE (KAF)14316786
31CHEI1FALL RIVER-NEAR CHESTER05-10-2021DISCHARGE (KAF)15426558
32RILW1TIETON-RIMROCK LAKE NEAR RIMROCK05-10-2021INFLOW (KAF)173166104
33DRMM8CLARK FORK-NR DRUMMOND05-10-2021DISCHARGE (KAF)187MM
34UNDW1WHITE SALMON-NEAR UNDERWOOD05-10-2021DISCHARGE (KAF)19324778
35SERO3JOHN DAY-AT SERVICE CK05-10-2021DISCHARGE (KAF)19540149
36ARDW1ENTIAT-NEAR ARDENVOIR05-10-2021DISCHARGE (KAF)196179110
37CSDI1NF PAYETTE-CASCADE DAM05-10-2021INFLOW (KAF)19736554
38TEAI1TETON-NEAR ST. ANTHONY05-10-2021DISCHARGE (KAF)22933568
39RCCM8ROCK CREEK-NEAR CLINTON05-10-2021DISCHARGE (KAF)23023797
40PARI1BOISE-NEAR PARMA05-10-2021DISCHARGE (KAF)23033070
41PARW1YAKIMA-NEAR PARKER05-10-2021DISCHARGE (KAF)26231284
42BIGI1BOISE-AT GLENWOOD BRIDGE05-10-2021DISCHARGE (KAF)26538070
43CLFW1NACHES-NEAR CLIFFDEL05-10-2021DISCHARGE (KAF)283279101
44REXI1HENRYS FORK-AT REXBURG05-10-2021DISCHARGE (KAF)28762846
45PITW1KLICKITAT-NEAR PITT05-10-2021DISCHARGE (KAF)29835684
46PRTI1PRIEST-NEAR PRIEST RIVER05-10-2021DISCHARGE (KAF)30658952
47ANTI1HENRYS FORK-AT ST. ANTHONY05-10-2021DISCHARGE (KAF)33254161
48CLUW1CLE ELUM-CLE ELUM LAKE05-10-2021INFLOW (KAF)338303112
49NACW1NACHES-NEAR NACHES05-10-2021DISCHARGE (KAF)39840299
50JLKW4SNAKE-JACKSON LAKE AT DAM05-10-2021INFLOW (KAF)42573058
51EMMI1PAYETTE-NEAR EMMETT05-10-2021DISCHARGE (KAF)45696847
52KIOW1YAKIMA-AT KIONA05-10-2021DISCHARGE (KAF)55365185
53BONM8BLACKFOOT-NEAR BONNER05-10-2021DISCHARGE (KAF)59269585
54TRYO3GRANDE RONDE-TROY05-10-2021DISCHARGE (KAF)60981275
55PATW1METHOW-NEAR PATEROS05-10-2021DISCHARGE (KAF)748737102
56BFTI1SNAKE-NEAR BLACKFOOT05-10-2021DISCHARGE (KAF)795138857
57LUCI1BOISE-LUCKY PEAK DAM05-10-2021INFLOW (KAF)797MM
58UMTW1YAKIMA-AT UMTANUM05-10-2021DISCHARGE (KAF)79881598
59SNAI1SNAKE-AT BLACKFOOT05-10-2021DISCHARGE (KAF)839151156
60BITM8BITTERROOT-NEAR MISSOULA05-10-2021DISCHARGE (KAF)844106379
61LAUW1KETTLE-AT LAURIER05-10-2021DISCHARGE (KAF)862134864
62FCFM8NF FLATHEAD-NEAR COLUMBIA FALLS05-10-2021DISCHARGE (KAF)944142666
63COEI1COEUR D ALENE-COEUR D ALENE LAKE05-10-2021INFLOW (KAF)962144866
64SPOW1SPOKANE-AT SPOKANE05-10-2021DISCHARGE (KAF)962MM
65CHDW1CHELAN-LAKE CHELAN DAM05-10-2021INFLOW (KAF)1010906112
66ABOM8CLARK FORK-ABOVE MISSOULA05-10-2021DISCHARGE (KAF)1051122985
67JKSW4SNAKE-NEAR JACKSON05-10-2021DISCHARGE (KAF)1065168563
68MODO3DESCHUTES-AT MOODY NR BIGGS05-10-2021DISCHARGE (KAF)1080119590
69LLKW1SPOKANE-AT LONGLAKE05-10-2021INFLOW (KAF)1134193059
70WGCM8MF FLATHEAD-NEAR WEST GLACIER05-10-2021DISCHARGE (KAF)1155137984
71PESW1WENATCHEE-AT PESHASTIN05-10-2021DISCHARGE (KAF)1176120797
72ALPW4SNAKE-NEAR ALPINE05-10-2021DISCHARGE (KAF)1265211660
73TONW1OKANOGAN-NEAR TONASKET05-10-2021DISCHARGE (KAF)1286129999
74AFRI1SNAKE-AMERICAN FALLS RESERVOIR05-10-2021INFLOW (KAF)1306200465
75DWRI1NF CLEARWATER-DWORSHAK DAM05-10-2021INFLOW (KAF)1344184273
76HHWM8SF FLATHEAD-HUNGRY HORSE DAM05-10-2021INFLOW (KAF)1364159985
77SHYI1SNAKE-NEAR SHELLEY05-10-2021DISCHARGE (KAF)1442204970
78SWAI1SNAKE-BELOW SWAN FALLS05-10-2021DISCHARGE (KAF)1504206573
79SIFI1SNAKE-AB EAGLE ROCK NR IDAHO FALLS05-10-2021DISCHARGE (KAF)1612233069
80PLDI1SF SNAKE-PALISADES DAM05-10-2021INFLOW (KAF)1715293658
81BELM8CLARK FORK-BELOW MISSOULA05-10-2021DISCHARGE (KAF)1895232681
82SRGM8CLARK FORK-AT ST REGIS05-10-2021DISCHARGE (KAF)2367306177
83ORFI1CLEARWATER-AT OROFINO05-10-2021DISCHARGE (KAF)2406341171
84WEII1SNAKE-AT WEISER05-10-2021DISCHARGE (KAF)2460382764
85WHBI1SALMON-AT WHITEBIRD05-10-2021DISCHARGE (KAF)2520506450
86BRNI1SNAKE-BROWNLEE DAM05-10-2021INFLOW (KAF)2656406865
87HEII1SNAKE-NEAR HEISE05-10-2021DISCHARGE (KAF)2785307491
88LEOI1KOOTENAI-AT LEONIA05-10-2021DISCHARGE (KAF)3014504160
89CFMM8FLATHEAD-AT COLUMBIA FALLS05-10-2021DISCHARGE (KAF)3076358786
90KERM8FLATHEAD-SELI’Š KSANKA QLISPE’ DAM05-10-2021INFLOW (KAF)3455446377
91SPDI1CLEARWATER-AT SPALDING05-10-2021DISCHARGE (KAF)3955504678
92LYDM8KOOTENAI-LIBBY DAM05-10-2021INFLOW (KAF)4376562678
93ANAW1SNAKE-NEAR ANATONE05-10-2021DISCHARGE (KAF)57421055454
94NOXM8CLARK FORK-NOXON RAPIDS DAM05-10-2021INFLOW (KAF)5784761676
95CABI1CLARK FORK-CABINET GORGE DAM05-10-2021INFLOW (KAF)6359810079
96ALFW1PEND OREILLE-ALBENI FALLS DAM05-10-2021INFLOW (KAF)6895920775
97LGDW1SNAKE-LOWER GRANITE DAM05-10-2021INFLOW (KAF)96961560662
98LGSW1SNAKE-LITTLE GOOSE DAM05-10-2021INFLOW (KAF)96961564562
99LMNW1SNAKE-LOWER MONUMENTAL DAM05-10-2021INFLOW (KAF)97481567562
100IHDW1SNAKE-ICE HARBOR DAM05-10-2021INFLOW (KAF)97551559263
101CIBW1COLUMBIA-AT INTL BOUNDARY05-10-2021DISCHARGE (KAF)25137MM
102CHJW1COLUMBIA-CHIEF JOSEPH DAM05-10-2021INFLOW (KAF)253463056783
103GCDW1COLUMBIA-GRAND COULEE DAM05-10-2021INFLOW (KAF)271754083567
104WELW1COLUMBIA-WELLS DAM05-10-2021INFLOW (KAF)274063298483
105RRHW1COLUMBIA-ROCKY REACH DAM05-10-2021INFLOW (KAF)283483362584
106WANW1COLUMBIA-WANAPUM DAM05-10-2021INFLOW (KAF)295444044873
107PRWW1COLUMBIA-PRIEST RAPIDS DAM05-10-2021INFLOW (KAF)295524134571
108MCDW1COLUMBIA-MCNARY DAM05-10-2021INFLOW (KAF)400395839669
109JDAO3COLUMBIA-JOHN DAY DAM05-10-2021INFLOW (KAF)410625966969
110TDAO3COLUMBIA-THE DALLES DAM05-10-2021INFLOW (KAF)412595337077
111BONO3COLUMBIA-BONNEVILLE DAM05-10-2021INFLOW (KAF)419075458377
112BFEI1KOOTENAI-AT BONNERS FERRY05-10-2021STAGE (FT)MMM
113HOPI1PEND OREILLE-PEND OREILLE LAKE NR HOPE05-10-2021LAKE ELEVATION (FT)MMM
114SJMI1ST JOE-AT ST MARIES05-10-2021STAGE (FT)MMM
115BULO3BULLY CREEK-BULLY CREEK DAM05-10-2021INFLOW (KAF)M0M